Weather History for Grand Junction, CO

Change the Weather History Date:

Tuesday, May 14, 2013

  Actual Average Record
Temperature  
Mean Temperature 71 °F 61 °F  
Max Temperature 87 °F 75 °F 93 °F (1984)
Min Temperature 55 °F 47 °F 29 °F (1907)
Degree Days  
Heating Degree Days 0 5  
Month to date heating degree days 112 97  
Since 1 July heating degree days 6003 5531  
Cooling Degree Days 6 1  
Month to date cooling degree days 11 11  
Year to date cooling degree days 11 14  
Growing Degree Days 21 (Base 50)    
Moisture  
Dew Point 36 °F    
Average Humidity 30    
Maximum Humidity 47    
Minimum Humidity 13    
Precipitation  
Precipitation 0.00 in 0.03 in 0.32 in (1935)
Month to date precipitation 0.54 0.44  
Year to date precipitation 3.08 3.39  
Snow  
Snow 0.00 in 0.00 in 0.00 in (2013)
Month to date snowfall 0.0 0.1  
Since 1 July snowfall 24.6 19.1  
Snow Depth 0.00 in    
Sea Level Pressure  
Sea Level Pressure 29.82 in    
Wind  
Wind Speed 12 mph (ESE)    
Max Wind Speed 28 mph    
Max Gust Speed 35 mph    
Visibility 10 miles    
Events      
T = Trace of Precipitation, MM = Missing Value Source: NWS Daily Summary

Daily Weather History Graph

Daily Weather History Graph

Search for Another Location

Airport:

Trip Planner

Search our weather history database for the weather conditions in past years. The results will help you decide how hot, cold, wet, or windy it might be!

Date:

Astronomy

May. 14, 2013 Rise Set
Actual Time 6:01 AM MDT 8:19 PM MDT
Civil Twilight 5:31 AM MDT 8:50 PM MDT
Nautical Twilight 4:54 AM MDT 9:27 PM MDT
Astronomical Twilight 4:13 AM MDT 10:08 PM MDT
Moon 9:44 AM MDT (5/14) No Moon Set
Length of Visible Light 15h 18m
Length of Day
14h 18m
Waxing Crescent, 19% of the Moon is Illuminated
May 14
Waxing Crescent
May 17
First Quarter
May 24
Full
May 31
Last Quarter
Jun 8
New

Hourly Weather History & Observations

Time (MDT) Temp. Dew Point Humidity Pressure Visibility Wind Dir Wind Speed Gust Speed Precip Events Conditions
12:53 AM 64.9 °F 37.0 °F 36% 29.89 in 10.0 mi ESE 13.8 mph - N/A   Clear
1:53 AM 62.1 °F 37.0 °F 39% 29.88 in 10.0 mi ESE 9.2 mph - N/A   Clear
2:53 AM 64.0 °F 36.0 °F 35% 29.86 in 10.0 mi ESE 16.1 mph - N/A   Clear
3:53 AM 61.0 °F 35.1 °F 38% 29.88 in 10.0 mi ESE 8.1 mph - N/A   Clear
4:53 AM 57.9 °F 36.0 °F 44% 29.88 in 10.0 mi East 10.4 mph - N/A   Clear
5:53 AM 59.0 °F 36.0 °F 42% 29.88 in 10.0 mi ESE 13.8 mph - N/A   Clear
6:53 AM 57.0 °F 37.9 °F 49% 29.91 in 10.0 mi SE 15.0 mph - N/A   Clear
7:53 AM 63.0 °F 37.9 °F 40% 29.90 in 10.0 mi SE 11.5 mph - N/A   Clear
8:53 AM 66.0 °F 37.0 °F 34% 29.92 in 10.0 mi SE 13.8 mph - N/A   Clear
9:53 AM 70.0 °F 37.0 °F 30% 29.90 in 10.0 mi SE 8.1 mph - N/A   Clear
10:53 AM 75.0 °F 35.1 °F 23% 29.88 in 10.0 mi SE 8.1 mph - N/A   Clear
11:53 AM 79.0 °F 36.0 °F 21% 29.84 in 10.0 mi ESE 3.5 mph - N/A   Clear
12:53 PM 82.0 °F 32.0 °F 16% 29.80 in 10.0 mi WSW 4.6 mph - N/A   Clear
1:53 PM 84.0 °F 34.0 °F 17% 29.77 in 10.0 mi WNW 4.6 mph - N/A   Clear
2:53 PM 86.0 °F 35.1 °F 16% 29.74 in 10.0 mi NW 9.2 mph - N/A   Clear
3:53 PM 86.0 °F 30.9 °F 14% 29.73 in 10.0 mi West 13.8 mph 20.7 mph N/A   Clear
4:53 PM 84.9 °F 32.0 °F 15% 29.73 in 10.0 mi NNE 8.1 mph 24.2 mph N/A   Clear
5:53 PM 82.0 °F 34.0 °F 18% 29.72 in 10.0 mi NE 18.4 mph - N/A   Clear
6:53 PM 81.0 °F 34.0 °F 18% 29.72 in 10.0 mi East 13.8 mph - N/A   Clear
7:53 PM 78.1 °F 33.1 °F 19% 29.71 in 10.0 mi ENE 6.9 mph - N/A   Clear
8:53 PM 75.9 °F 35.1 °F 23% 29.73 in 10.0 mi SE 16.1 mph - N/A   Partly Cloudy
9:06 PM 75.2 °F 35.6 °F 24% 29.92 in 10.0 mi ESE 17.3 mph - N/A   Partly Cloudy
9:53 PM 75.0 °F 37.0 °F 25% 29.76 in 10.0 mi SE 19.6 mph 24.2 mph N/A   Partly Cloudy
10:53 PM 72.0 °F 39.0 °F 30% 29.76 in 10.0 mi SE 23.0 mph 33.4 mph N/A   Clear
11:53 PM 72.0 °F 39.0 °F 30% 29.76 in 10.0 mi South 16.1 mph 23.0 mph N/A   Mostly Cloudy